Tracking 27422 objects as of 30-May-2023
HD Live streaming from Space Station
objects crossing your sky now

STARLINK-4053

Track STARLINK-4053 now!
10-day predictions
STARLINK-4053 is classified as:


NORAD ID: 53536
Int'l Code: 2022-101K
Perigee: 546.2 km
Apogee: 547.6 km
Inclination: 53.2 °
Period: 95.4 minutes
Semi major axis: 6917 km
RCS: Unknown
Launch date: August 19, 2022
Source: United States (US)
Launch site: AIR FORCE EASTERN TEST RANGE (AFETR)
Your satellite tracking list
Your tracking list is empty




NASA's NSSDC Master Catalog

Two Line Element Set (TLE):
1 53536U 22101K   23150.51249857  .00000322  00000-0  38331-4 0  9999
2 53536  53.2154 296.9814 0000961  97.9807 262.1294 15.08838152 43193
Source of the keplerian elements: AFSPC